RH
53 72 79 82 85 88 88 86 83 79 77 75 77 71 63 42 34 31 23 18 16 14 12 12 16 17 23 18 21 20 23 29 26 23 21 21 20 22 23 20 21 28 30 30 38 38 37
71 78 83 87 92 94 92 89 86 80 75 76 74 72 61 53 36 28 23 20 20 19 24 23 22 17 24 21 22 22 23 28 32 28 25 25 23 21 20 24 28 23 27 32 38 38 37
80 84 88 94 94 96 95 93 82 76 71 73 72 68 61 56 34 25 26 21 27 26 23 22 16 19 19 23 22 20 21 26 32 32 27 25 23 23 24 27 24 26 36 38 40 38 38
85 90 95 95 97 97 96 90 88 80 69 68 68 65 57 55 34 22 24 27 28 25 23 17 13 23 23 15 20 20 22 23 25 29 32 29 21 20 23 21 25 29 28 36 39 39 44
93 97 98 99 94 91 90 90 88 73 65 48 57 59 52 52 35 22 22 22 21 20 19 16 20 17 19 17 19 21 20 26 25 26 25 17 19 21 24 27 27 27 26 24 31 35 42
97 99 99 100 98 96 91 82 76 72 70 59 56 56 46 50 35 20 20 20 19 21 18 16 15 21 18 21 21 21 20 21 23 22 28 27 24 28 25 28 35 30 28 26 28 32 33
92 98 96 97 99 99 89 74 62 68 66 58 54 51 44 49 36 19 18 31 32 28 22 26 23 18 20 21 20 18 19 21 20 21 24 18 37 31 26 24 22 23 25 28 25 28 33
90 90 90 92 96 99 91 80 57 63 56 59 53 50 46 48 37 21 32 36 54 51 28 23 21 20 20 23 22 20 18 22 20 25 24 27 33 23 23 23 23 25 27 30 26 24 27
86 87 86 88 88 79 73 59 53 52 54 55 54 50 46 46 40 45 40 56 53 55 38 21 20 20 21 23 21 23 21 25 22 25 25 28 24 19 21 24 23 25 29 31 33 32 29
85 87 93 90 75 65 56 51 54 49 52 55 50 48 48 46 45 46 54 53 48 50 41 29 24 25 20 21 26 19 19 26 22 26 26 25 20 22 28 23 22 31 25 30 35 44 50
86 92 99 89 77 66 48 51 51 48 50 56 55 53 51 42 50 49 52 48 51 58 87 27 26 20 18 21 23 24 18 20 25 26 24 28 26 29 31 23 22 27 28 34 35 47 49
89 95 99 86 73 60 46 53 52 51 54 58 56 50 46 51 52 51 50 50 59 61 89 34 28 30 25 27 22 27 19 18 18 25 23 22 24 26 24 23 23 24 32 36 39 52 76
98 97 89 80 72 59 45 48 54 56 59 62 58 53 48 50 53 48 51 61 69 68 32 37 39 32 28 33 28 33 25 28 35 48 53 37 28 23 21 29 26 34 47 78 76 88 68
95 100 97 81 73 60 46 47 54 62 64 54 55 53 51 52 48 48 60 57 57 38 42 32 32 33 33 33 32 36 32 30 27 30 50 54 68 27 23 26 32 36 36 60 66 65 58
94 100 97 81 74 61 49 52 57 66 70 51 55 64 62 59 46 48 61 71 56 42 36 40 35 37 39 33 35 37 27 29 28 28 48 45 47 25 23 23 26 33 45 31 44 47 57
97 100 93 81 74 62 54 57 57 66 67 62 57 60 53 43 46 61 57 45 38 30 32 33 42 35 40 37 40 41 35 24 30 26 24 33 58 29 27 26 27 32 28 45 58 69 67
100 99 88 80 76 62 57 63 59 70 69 61 70 61 57 38 50 64 60 43 33 28 31 37 38 39 34 35 39 41 37 28 23 29 25 31 41 45 30 38 36 41 41 36 38 47 64
100 98 84 81 76 63 61 67 67 73 64 65 66 64 50 41 61 46 49 38 37 33 30 32 31 35 33 36 43 43 42 33 24 26 38 33 54 73 52 31 27 29 32 31 54 56 53
97 93 84 83 77 67 65 72 77 74 74 67 70 55 47 45 59 55 47 40 35 36 36 37 40 32 30 37 49 44 41 31 26 29 40 43 62 84 58 39 34 36 33 31 35 46 61
94 94 88 82 77 70 69 71 75 78 76 71 68 65 58 50 46 47 46 46 50 37 35 32 36 31 34 40 38 48 45 41 30 30 32 40 62 72 81 66 61 71 59 55 55 76 62
95 93 91 86 77 74 73 73 74 75 77 78 62 65 63 60 56 45 49 48 47 50 41 35 41 40 39 49 49 55 49 46 44 47 36 47 71 67 64 60 59 62 63 62 68 66 74
86 91 90 87 81 75 77 77 78 77 78 82 73 60 60 56 52 52 64 58 52 48 48 53 53 44 40 47 47 55 52 54 58 54 54 46 74 63 76 61 62 71 61 57 58 58 57
84 87 90 89 82 80 81 78 77 83 83 74 58 54 64 63 56 57 56 50 54 48 50 47 47 50 53 50 51 53 54 55 58 65 59 53 64 81 79 65 74 89 64 52 55 52 51
90 88 87 86 86 82 81 80 79 85 88 96 62 59 69 63 61 58 56 52 56 57 56 52 50 55 51 44 50 56 60 61 61 61 58 59 62 84 95 80 98 51 42 42 46 48 47
92 92 86 84 84 87 81 79 77 79 99 99 85 68 70 68 58 54 56 57 55 55 62 61 56 50 46 55 74 74 64 67 62 59 61 63 77 98 98 91 66 58 53 49 52 57 63
97 95 91 87 85 81 82 81 75 78 92 100 92 78 76 77 60 47 53 55 66 65 64 64 55 49 51 68 74 87 87 64 67 70 57 61 68 96 100 98 90 56 51 44 50 75 85
100 97 90 90 88 84 81 78 76 81 89 99 92 95 86 91 62 55 61 65 57 61 66 64 65 64 55 83 90 95 84 59 83 76 89 83 88 96 92 96 89 54 49 44 74 89 90
98 100 94 92 89 85 79 77 81 81 89 98 94 99 91 94 81 63 63 63 66 65 71 67 70 72 78 93 95 86 89 80 86 63 68 82 95 96 92 98 94 48 60 78 91 92 100
99 100 99 96 90 86 85 86 85 84 89 100 99 99 92 100 94 85 77 69 73 67 67 70 65 68 74 90 96 96 99 100 90 90 59 77 73 83 89 81 74 91 90 98 97 96 94
Wind_Speed
14 14 15 16 17 19 20 22 22 24 25 25 25 27 28 20 24 19 6 8 8 9 9 9 8 6 1 5 5 13 14 14 9 10 16 7 9 6 6 4 6 7 4 3 6 2 2
13 13 14 15 17 19 20 22 23 24 25 25 25 25 27 23 26 11 7 8 9 9 9 10 6 3 3 5 4 10 13 10 13 11 14 14 5 6 4 5 6 4 2 5 4 3 1
12 13 14 15 17 20 22 25 26 27 26 24 24 24 26 23 24 9 8 7 7 7 6 5 7 4 13 4 4 11 10 8 9 9 5 8 7 5 6 4 2 3 4 6 7 6 1
12 13 14 15 18 20 22 24 26 27 27 25 23 23 25 22 21 7 6 6 6 6 6 4 3 3 4 3 4 10 12 3 6 6 3 3 5 2 3 1 4 4 4 3 7 7 4
11 13 14 15 17 19 21 24 26 27 27 27 23 23 23 20 18 6 5 6 6 5 3 2 3 3 4 4 5 10 10 6 6 1 4 3 4 2 2 4 3 4 5 9 1 8 6
12 15 16 17 16 18 21 24 25 26 27 27 23 23 22 17 16 4 6 6 6 5 4 3 3 2 3 4 7 11 10 7 3 7 3 3 3 0 6 6 4 8 6 8 7 4 4
12 15 17 18 19 20 22 25 25 25 25 25 24 23 21 14 14 1 0 3 2 1 11 5 4 3 3 9 4 10 13 8 5 5 4 3 5 6 7 6 6 6 8 9 6 5 2
11 15 17 19 20 22 23 26 24 24 23 23 24 22 19 11 11 6 5 4 3 2 4 1 1 4 1 4 3 12 19 4 5 5 7 0 5 4 5 5 6 9 8 7 3 3 8
12 15 17 18 21 23 24 24 23 23 22 23 23 22 17 8 8 11 12 5 2 3 1 2 2 3 2 5 3 7 10 6 4 6 7 4 3 3 5 6 8 8 6 7 7 12 9
12 15 18 18 22 25 24 23 23 22 21 22 22 21 15 4 3 5 4 6 1 2 3 4 2 2 1 2 2 2 5 1 1 4 6 3 3 4 7 3 6 4 5 7 8 7 4
12 15 17 19 22 25 24 23 22 22 22 22 22 17 11 13 3 4 6 3 1 1 2 3 2 1 3 3 6 0 1 3 4 5 3 1 3 4 6 3 4 7 9 9 3 4 6
13 16 16 18 22 24 24 22 21 21 21 21 21 13 10 5 5 7 5 2 2 2 3 2 1 5 2 5 2 6 1 3 0 3 5 1 3 1 4 7 6 10 10 9 5 1 1
14 15 18 18 22 24 24 22 20 18 19 19 19 9 9 8 3 8 3 2 2 4 3 2 3 4 6 4 2 4 2 6 5 6 5 5 4 3 2 6 2 8 7 4 4 2 4
15 16 16 18 21 24 24 22 19 17 20 20 15 6 6 5 11 3 2 1 3 1 4 2 2 6 2 5 2 5 6 3 8 6 4 4 4 3 3 3 3 5 3 2 4 3 6
17 17 17 17 20 23 22 20 19 18 21 21 10 6 3 8 9 2 2 4 2 4 2 5 3 4 3 3 2 4 4 3 4 7 5 6 3 3 3 1 2 3 2 1 4 6 2
17 17 16 17 20 21 20 18 18 18 20 19 8 4 2 13 5 1 1 3 2 2 2 2 3 1 3 6 5 6 2 2 3 4 5 2 6 2 3 2 2 2 2 1 2 4 5
16 17 15 18 19 19 17 17 16 17 19 12 4 3 1 11 3 1 3 3 3 3 3 3 3 3 2 3 3 4 1 3 0 3 3 1 2 5 1 5 2 2 2 3 1 2 3
16 15 17 16 18 18 16 15 16 17 19 8 4 2 3 7 1 1 2 3 2 2 2 1 2 2 3 4 4 2 2 2 5 1 2 2 3 4 7 5 5 3 3 3 1 3 3
14 16 17 16 17 17 15 13 13 12 14 6 3 2 3 4 2 3 2 3 1 3 2 1 1 0 3 2 3 4 3 4 4 2 3 3 2 4 1 1 3 2 4 5 6 3 5
18 19 17 17 17 17 15 13 11 10 8 5 3 2 1 2 1 3 2 2 3 1 2 1 1 0 1 4 7 4 3 3 3 3 4 3 4 6 7 6 8 8 12 8 9 5 6
20 20 20 19 17 16 14 12 10 8 6 4 1 1 1 1 2 2 0 2 3 3 3 3 3 6 4 4 5 6 6 3 8 8 5 3 5 9 13 12 12 17 21 17 14 18 11
21 22 22 20 18 16 15 13 11 7 4 1 2 1 2 1 0 3 4 5 5 3 4 4 5 3 7 5 6 10 8 5 5 5 4 4 4 2 5 13 15 13 20 20 16 18 17
21 21 21 20 18 16 15 13 12 8 5 3 1 2 2 3 4 3 5 5 6 4 7 4 4 5 7 7 5 6 7 6 8 7 5 5 2 0 9 2 5 10 11 4 6 6 6
23 21 20 19 18 16 15 14 13 11 9 3 2 3 2 3 5 5 3 4 8 9 3 4 6 5 1 4 7 9 12 15 13 12 8 5 4 1 5 4 4 6 3 1 3 6 6
23 23 20 20 17 17 16 16 15 13 11 10 6 2 2 4 5 7 8 5 4 6 4 5 6 1 3 2 3 5 4 3 0 7 4 2 5 3 3 5 11 13 2 2 2 2 6
24 24 22 20 19 17 17 17 16 14 13 12 10 8 5 3 4 6 2 7 4 5 5 7 4 4 1 2 1 3 4 1 3 1 3 2 2 4 3 5 5 1 1 2 2 3 9
25 24 22 21 20 19 18 19 16 15 15 15 8 11 4 3 4 3 4 4 4 3 2 4 5 3 2 3 3 4 5 4 3 4 5 3 2 9 10 7 8 2 3 2 0 2 8
23 25 24 22 21 21 19 18 18 16 16 17 9 15 9 2 4 4 3 1 1 1 3 2 3 2 3 3 3 4 3 3 2 4 6 7 6 5 4 5 8 2 1 1 2 3 4
23 24 26 24 22 21 18 18 18 16 16 16 10 13 15 5 3 6 12 16 11 6 1 5 3 4 4 4 1 1 3 2 2 5 1 4 7 3 8 4 3 3 1 5 3 2 4
Wind_Direction
73 65 55 45 35 28 22 17 13 11 11 10 9 10 9 6 359 355 30 38 50 68 86 99 106 113 20 86 42 350 358 5 10 18 20 352 23 342 40 42 4 81 98 70 75 103 39
67 58 48 38 29 22 16 11 7 5 4 4 5 5 7 7 0 22 60 59 65 76 90 98 95 33 306 74 348 357 358 9 22 17 38 29 19 318 62 32 24 358 112 113 171 167 170
62 50 39 31 23 15 8 6 6 3 1 2 3 3 6 8 8 54 58 65 68 74 90 94 86 38 61 82 359 7 1 7 18 25 42 32 341 32 307 127 304 149 208 192 194 195 280
51 38 29 24 17 9 1 358 358 358 359 2 2 3 5 10 13 53 57 75 76 85 89 83 51 23 75 7 44 2 2 29 10 22 33 358 348 83 6 166 208 247 217 268 128 182 129
44 30 19 14 7 359 354 353 355 356 358 358 2 3 4 8 17 40 71 91 84 80 68 57 11 302 74 346 13 352 355 345 319 323 350 307 300 8 222 251 232 229 347 354 120 178 145
33 24 13 8 2 356 353 354 354 354 358 0 5 2 2 9 16 75 89 87 79 39 344 360 339 157 52 5 336 346 354 337 309 296 219 238 253 262 25 15 19 331 342 326 305 125 214
20 14 6 2 0 359 356 356 355 355 358 359 0 359 0 7 14 125 118 332 253 155 34 46 13 75 38 331 318 20 347 308 218 238 19 31 49 30 4 7 339 301 288 286 354 94 324
7 1 358 355 352 349 349 350 353 354 355 356 357 359 360 8 26 61 52 53 48 354 103 20 157 110 48 338 310 12 356 18 334 22 335 200 72 27 326 269 280 297 310 1 331 352 304
356 354 350 345 344 346 348 349 352 354 354 356 356 357 359 4 33 39 70 60 64 13 236 81 43 32 354 334 52 344 2 314 7 18 355 49 52 309 291 314 357 332 31 345 302 318 271
351 348 342 347 348 349 349 350 353 354 354 356 357 358 4 15 65 39 54 348 23 52 183 22 62 73 271 323 196 318 13 338 199 16 340 59 130 325 309 357 14 301 33 333 316 347 308
336 338 338 343 344 345 349 351 353 352 353 356 356 3 19 46 25 40 319 338 82 346 44 30 34 316 274 56 296 214 352 281 41 331 326 322 15 351 318 24 350 268 332 283 253 299 305
324 329 330 339 341 344 347 348 353 355 355 354 356 7 22 30 26 0 352 70 46 53 296 58 326 350 327 53 77 328 303 221 176 288 215 176 111 298 336 302 254 279 295 291 155 205 314
313 321 331 334 338 344 345 345 348 352 352 354 352 360 26 35 343 328 15 269 36 76 194 53 339 345 308 4 2 5 24 47 29 3 6 315 134 114 283 318 167 345 342 347 359 335 242
308 308 317 326 334 341 343 343 345 346 348 350 350 350 356 4 349 353 73 253 58 123 47 172 257 283 5 358 119 324 342 81 49 346 280 351 332 30 4 54 300 299 349 88 305 325 291
297 300 309 319 331 337 340 342 342 344 347 347 360 352 356 311 341 53 259 58 34 31 352 344 243 279 146 159 239 309 88 50 50 12 21 357 295 161 90 12 19 346 41 23 274 268 242
287 291 302 315 326 333 337 338 339 341 346 349 352 314 232 334 341 53 47 101 111 51 325 242 344 322 320 8 337 7 42 89 116 21 346 16 299 24 135 200 223 264 345 317 271 301 299
283 285 296 310 318 326 331 333 335 339 344 349 356 310 338 344 340 245 54 65 104 81 356 331 356 300 334 345 330 313 15 113 141 130 311 344 194 291 217 202 188 184 239 215 272 269 270
274 277 289 302 311 317 321 327 333 342 348 5 312 291 340 351 355 349 73 28 342 127 194 236 282 317 326 347 297 286 299 59 93 358 292 62 304 282 255 60 58 25 306 318 267 303 259
272 281 287 294 303 307 309 315 325 341 359 349 304 305 360 27 342 101 140 114 310 187 212 201 260 299 46 294 304 222 322 127 134 273 335 121 230 302 262 82 25 237 185 237 298 326 230
273 277 279 286 293 296 297 302 314 328 346 338 295 301 182 72 188 338 166 165 180 176 291 287 319 56 236 246 218 277 261 126 129 216 110 99 241 216 247 287 327 290 282 266 263 254 240
269 272 276 278 284 285 284 287 294 311 329 338 254 70 91 340 103 64 344 45 203 201 228 208 220 235 223 274 267 231 237 226 194 170 180 203 251 239 260 277 276 271 278 273 245 250 250
269 269 272 274 275 274 273 274 275 285 285 285 295 245 186 91 176 258 128 211 217 156 199 194 229 295 214 234 256 300 315 312 260 168 203 155 261 3 272 263 257 270 266 270 247 252 254
271 268 267 267 267 266 264 266 268 263 241 283 225 293 294 141 177 189 205 204 206 147 220 251 231 276 258 259 315 314 299 276 260 264 214 161 234 180 284 359 352 280 259 195 195 209 211
266 265 263 262 261 259 260 259 258 251 233 305 333 314 235 240 197 207 201 212 196 200 241 183 196 228 173 320 302 269 253 251 248 246 235 176 171 155 285 319 237 245 345 278 236 273 294
264 263 260 258 257 258 257 256 252 244 236 239 296 279 275 267 202 238 224 211 217 244 236 247 263 23 89 3 289 300 273 218 42 47 27 334 143 231 249 231 286 277 120 32 18 14 30
260 260 258 256 255 253 256 254 246 237 229 234 245 246 286 311 241 281 202 212 221 220 232 196 93 75 198 230 206 259 253 31 241 98 44 24 302 184 207 255 264 121 70 16 133 248 20
255 260 260 257 254 252 249 250 243 236 225 219 235 233 249 259 251 285 209 194 180 232 254 114 149 150 226 201 225 220 246 207 244 220 177 158 176 223 233 252 277 76 164 218 257 279 358
255 254 255 253 254 252 247 247 247 237 230 207 236 232 212 249 286 291 305 207 26 253 204 145 83 190 158 208 209 233 234 222 286 240 171 175 183 194 207 231 255 165 246 188 4 331 322
255 250 248 247 245 248 248 245 239 236 234 216 230 233 238 227 283 292 276 267 278 304 254 198 202 150 185 191 219 223 241 237 247 267 212 252 190 201 196 213 134 40 113 79 30 315 353